Find Starlink 32327

NORAD ID: 61641 Int'l Des: 2024-191 Owner: SPXS Country: US Constellation: starlink operational
LEOCIRCULAR

Live Position

Loading 3D Globe...

About Starlink 32327

Description loading...

Upcoming Passes

Passes for default location (London). Set your location on the main map for personalized predictions.

Altitude History

Loading altitude history...

Two-Line Element Set

1 61641U 24191W 26124.49831532 .00006274 00000-0 23733-3 0 9995
2 61641 42.9985 199.1436 0001605 287.3470 72.7206 15.27575662 86074
Epoch: May 4, 2026 • Age: 16 hours

Current Status

Altitude 484.1 km
Velocity 7.63 km/s
Sub-Earth Point 30.07°N, 47.36°W
Launch Date Oct 23, 2024
Age 1.5 years
Type internet

Technical Details

Classification Payload
Mass 730.00 kg
Dry Mass 700.00 kg
Total Mass 730.00 kg
Length 0.30 m
Diameter 4.10 m
Span 29.00 m
Shape Box + pan
Manufacturer SPXS
Bus Type Starlink V2M
Phase Status In Orbit
Owner/State SPXS/US

Most Searched